Location: Vigil
(41.3198°N, 81.8576°W)
Time: 20:25:56
(UTC+00:00)

Daily predictions for brighter satellites

Satellite Brightness Start Highest point End
(mag) Time Altitude Azimuth Time Altitude Azimuth Time Altitude Azimuth
STARLINK 1030 3.2 12:00:12 10° WSW 12:03:49 69° NW 12:07:28 10° NE
Cosmos 2058 Rocket 3.7 12:02:09 10° SW 12:06:06 32° WNW 12:10:04 10° NNW
Cosmos 1437 3.6 12:03:31 10° N 12:06:29 48° ENE 12:09:25 10° SSE
STARLINK 1020 3.3 12:03:10 10° WSW 12:06:46 65° NW 12:10:25 10° NE
STARLINK-60 4.1 12:04:52 10° NW 12:08:04 39° NNE 12:11:14 10° ESE
STARLINK 1034 3.3 12:06:08 10° WSW 12:09:44 61° NW 12:13:22 10° NE
Cosmos 2263 Rocket 2.7 12:05:04 10° NW 12:10:19 40° WSW 12:15:33 10° S
Cosmos 1726 3.9 12:08:46 10° W 12:10:22 12° WNW 12:11:59 10° NW
Cosmos 1624 Rocket 4.0 12:05:34 10° NNW 12:10:44 66° WSW 12:15:52 10° S
CZ-2C R/B 4.1 12:06:34 10° SSE 12:11:08 69° ENE 12:15:39 10° N
STARLINK 1029 3.1 12:08:38 10° WSW 12:11:41 48° NW 12:14:44 10° NE
STARLINK 1028 3.3 12:12:15 10° WSW 12:14:59 37° NNW 12:17:45 10° NE
STARLINK 1021 3.3 12:12:29 10° WSW 12:15:13 37° NNW 12:17:59 10° NE
STARLINK 1019 3.3 12:12:45 10° WSW 12:15:27 37° NNW 12:18:11 10° NE
STARLINK 1012 3.3 12:12:57 10° WSW 12:15:40 37° NNW 12:18:26 10° NE
STARLINK 1033 3.4 12:12:07 10° WSW 12:15:42 55° NW 12:19:18 10° NE
STARLINK 1010 3.3 12:13:08 10° WSW 12:15:52 37° NNW 12:18:38 10° NE
STARLINK 1026 3.3 12:13:21 10° WSW 12:16:05 36° NNW 12:18:51 10° NE
STARLINK 1013 3.3 12:13:36 10° WSW 12:16:21 36° NNW 12:19:06 10° NE
Alouette 2 Rocket 3.6 12:11:28 10° SSW 12:16:32 82° W 12:20:20 10° N
STARLINK 1009 3.3 12:13:51 10° WSW 12:16:35 36° NNW 12:19:20 10° NE
STARLINK 1015 3.4 12:14:04 10° WSW 12:16:48 36° NNW 12:19:33 10° NE
STARLINK 1016 3.4 12:14:18 10° WSW 12:17:01 36° NNW 12:19:46 10° NE
STARLINK 1008 3.4 12:14:32 10° WSW 12:17:15 36° NNW 12:20:00 10° NE
STARLINK 1025 3.4 12:14:58 10° W 12:17:41 35° NNW 12:20:26 10° NE
STARLINK 1017 3.4 12:15:12 10° W 12:17:55 35° NNW 12:20:40 10° NE
STARLINK 1023 3.4 12:15:25 10° W 12:18:08 35° NNW 12:20:53 10° NE
STARLINK 1007 3.4 12:15:40 10° W 12:18:24 35° NNW 12:21:07 10° NE
Nadezhda 3 Rocket 4.0 12:12:18 10° S 12:18:26 81° W 12:24:39 10° N
STARLINK 1048 3.4 12:15:54 10° W 12:18:36 35° NNW 12:21:20 10° NE
ATLAS 2AS CENTAUR R/B 3.6 12:11:20 10° WSW 12:18:40 38° NW 12:26:01 10° NNE
STARLINK 1049 3.4 12:16:06 10° W 12:18:49 35° NNW 12:21:33 10° NE
STARLINK 1051 3.4 12:16:20 10° W 12:19:03 34° NNW 12:21:47 10° NE
H-2A R/B 3.4 12:16:00 10° N 12:19:35 35° WNW 12:23:07 10° SW
Cosmos 1821 Rocket 4.0 12:15:06 10° N 12:21:19 88° W 12:27:25 10° S
ATLAS CENTAUR R/B 4.1 22:44:28 10° W 22:49:12 46° NNW 23:01:26 10° NE
Meteor 1-24 Rocket 4.1 22:54:09 10° SSW 22:59:25 67° WNW 23:04:48 10° N
NOSS 0 Rocket 4.0 22:53:23 10° NNW 22:59:35 63° ENE 23:05:42 10° SE
H-2A R/B 2.9 22:56:19 10° S 23:00:08 79° WSW 23:04:02 10° NNW
Cosmos 1269 Rocket 4.4 22:55:44 10° N 23:00:46 42° ENE 23:05:45 10° SE
SL-16 R/B 3.5 22:58:46 10° N 23:02:42 19° NE 23:06:36 10° E
CORIOLIS 4.2 22:59:26 10° SSE 23:04:48 85° ENE 23:10:12 10° NNW
Cosmos 2219 3.2 23:01:25 10° S 23:06:56 65° ESE 23:12:31 10° NNE
Cosmos 724 4.4 23:01:51 10° SSW 23:07:48 70° ESE 23:13:40 10° NE
Nadezhda 3 Rocket 4.0 23:08:25 10° N 23:14:45 84° E 23:21:06 10° S
CZ-4C R/B 3.1 23:08:22 10° NW 23:15:47 89° WSW 23:24:09 10° SSE
DELTA 2 R/B(2) 3.9 23:15:16 10° WSW 23:17:46 53° S 23:19:21 13° E
Cosmos 2297 Rocket 2.3 23:13:11 10° S 23:18:40 56° ESE 23:24:12 10° NNE
SKYMED 2 3.7 23:15:50 10° NNE 23:20:05 52° E 23:24:18 10° S
Cosmos 1939 Rocket 4.1 23:18:14 10° ESE 23:21:09 20° ENE 23:24:06 10° NNE
FengYun 1-2 T 4.3 23:16:19 10° SSE 23:21:50 61° ENE 23:27:25 10° N
Cosmos 1980 3.7 23:17:44 10° NNW 23:23:25 68° ENE 23:29:04 10° SSE
Cosmos 494 Rocket 4.0 23:20:42 10° NNW 23:25:50 90° NW 23:30:57 10° SSE
Cosmos 1703 4.3 23:25:17 10° SE 23:28:35 26° E 23:31:53 10° NNE
SL-8 R/B 3.8 23:23:52 10° SW 23:28:39 67° SSE 23:32:26 16° ENE
Cosmos 1812 Rocket 3.9 23:25:27 10° NNW 23:29:55 71° W 23:34:21 10° S
Ariane Rocket 4.3 23:26:42 10° ESE 23:30:01 18° ENE 23:33:22 10° NNE
Meteor 2-17 Rocket 4.5 23:24:01 10° S 23:30:10 89° E 23:36:21 10° N
Cosmos 2219 Rocket 3.7 23:25:19 10° NW 23:30:38 42° WSW 23:35:53 10° S
Cosmos 2227 Rocket 2.2 23:25:37 10° S 23:31:11 65° ESE 23:36:48 10° NNE
SL-8 Rocket 4.1 23:26:29 10° SSE 23:32:35 54° E 23:38:41 10° NNE
YAOGAN 1 2.9 23:31:58 10° SE 23:36:03 43° ENE 23:40:10 10° N
Cosmos-2242 3.1 23:31:57 10° N 23:36:10 49° E 23:40:19 10° SSE
ISS -3.8 23:34:43 10° SW 23:38:05 82° SE 23:40:06 22° ENE
Cosmos 2341 Rocket 4.0 23:32:09 10° S 23:38:32 83° E 23:44:55 10° N
USA 267 4.4 23:34:39 10° NE 23:40:19 33° NNW 23:45:59 10° W
H-2A ROCKET BODY 3.9 23:31:43 10° WSW 23:41:05 25° SSW 23:44:38 10° SSE
Cosmos 44 3.2 23:39:56 10° SSW 23:44:28 57° ESE 23:47:34 19° NE
Meteor 2-10 Rocket 3.6 23:42:40 10° N 23:47:53 54° ENE 23:52:52 10° SSE
ATLAS CENTAUR R/B 3.2 23:48:20 10° N 23:49:59 14° NNE 23:49:59 14° NNE
H-2A R/B 4.1 23:54:32 11° NNE 23:54:32 11° NNE 23:54:46 10° NNE
YAOGAN 6 3.6 23:48:52 10° S 23:52:27 50° W 23:56:03 10° NNW
CZ-4 R/B 1.3 23:48:53 10° SSE 23:52:54 87° ENE 23:57:02 10° NNW
